Weather History for Birchwood, AK

Change the Weather History Date:

Friday, March 15, 2013

  Actual Average Record
Temperature  
Mean Temperature 18 °F -  
Max Temperature 30 °F 31 °F 44 °F (1986)
Min Temperature 6 °F 14 °F -11 °F (2007)
Degree Days  
Heating Degree Days 47    
Moisture  
Dew Point 7 °F    
Average Humidity 91    
Maximum Humidity 100    
Minimum Humidity 79    
Precipitation  
Precipitation 0.00 in - - ()
Sea Level Pressure  
Sea Level Pressure 29.77 in    
Wind  
Wind Speed 2 mph (SE)    
Max Wind Speed 8 mph    
Max Gust Speed -    
Visibility 10 miles    
Events      
Averages and records for this station are not official NWS values.
T = Trace of Precipitation, MM = Missing Value Source: NWS Daily Summary

Daily Weather History Graph

Daily Weather History Graph

Search for Another Location

Airport:

Trip Planner

Search our weather history database for the weather conditions in past years. The results will help you decide how hot, cold, wet, or windy it might be!

Date:

Astronomy

Mar. 15, 2013 Rise Set
Actual Time 8:13 AM AKDT 8:01 PM AKDT
Civil Twilight 7:30 AM AKDT 8:44 PM AKDT
Nautical Twilight 6:39 AM AKDT 9:36 PM AKDT
Astronomical Twilight 5:43 AM AKDT 10:32 PM AKDT
Moon 8:53 AM AKDT (3/15) 12:37 AM AKDT (3/15)
Length of Visible Light 13h 14m
Length of Day
11h 47m
Waxing Crescent, 16% of the Moon is Illuminated
Mar 15
Waxing Crescent
Mar 19
First Quarter
Mar 27
Full
Apr 2
Last Quarter
Apr 10
New

Hourly Weather History & Observations

Time (AKDT) Temp. Windchill Dew Point Humidity Pressure Visibility Wind Dir Wind Speed Gust Speed Precip Events Conditions
12:16 AM 10.4 °F - - N/A% 29.86 in 10.0 mi Calm Calm - N/A   Clear
12:36 AM 8.6 °F - - N/A% 29.86 in 10.0 mi Calm Calm - N/A   Clear
12:56 AM 8.6 °F - - N/A% 29.85 in 10.0 mi Calm Calm - N/A   Clear
1:16 AM 8.6 °F 2.0 °F - N/A% 29.85 in 10.0 mi South 3.5 mph - N/A   Clear
3:16 AM 8.6 °F - - N/A% 29.82 in 10.0 mi Calm Calm - N/A   Clear
3:36 AM 6.8 °F -0.1 °F 6.8 °F 100% 29.82 in 10.0 mi SSE 3.5 mph - N/A   Clear
3:56 AM 6.8 °F -0.1 °F 5.0 °F 92% 29.81 in 10.0 mi SSE 3.5 mph - N/A   Clear
4:16 AM 6.8 °F -0.1 °F 5.0 °F 92% 29.80 in 10.0 mi SE 3.5 mph - N/A   Clear
4:36 AM 6.8 °F -0.1 °F 6.8 °F 100% 29.80 in 10.0 mi South 3.5 mph - N/A   Clear
4:56 AM 6.8 °F -2.0 °F 6.8 °F 100% 29.79 in 10.0 mi WSW 4.6 mph - N/A   Clear
5:16 AM 6.8 °F -0.1 °F 6.8 °F 100% 29.79 in 10.0 mi South 3.5 mph - N/A   Clear
5:36 AM 6.8 °F -2.0 °F 5.0 °F 92% 29.79 in 10.0 mi SW 4.6 mph - N/A   Clear
5:56 AM 6.8 °F -2.0 °F 3.2 °F 85% 29.79 in 10.0 mi SW 4.6 mph - N/A   Clear
6:16 AM 6.8 °F -3.5 °F 6.8 °F 100% 29.79 in 10.0 mi SSW 5.8 mph - N/A   Clear
6:36 AM 10.4 °F -1.5 °F 8.6 °F 92% 29.78 in 10.0 mi South 8.1 mph - N/A   Clear
6:56 AM 10.4 °F -0.4 °F 8.6 °F 92% 29.78 in 10.0 mi South 6.9 mph - N/A   Clear
7:16 AM 12.2 °F 4.3 °F 6.8 °F 79% 29.77 in 10.0 mi South 4.6 mph - N/A   Clear
7:36 AM 10.4 °F 2.2 °F 6.8 °F 85% 29.77 in 10.0 mi SSW 4.6 mph - N/A   Clear
7:56 AM 10.4 °F - 5.0 °F 79% 29.77 in 10.0 mi Calm Calm - N/A   Clear
8:16 AM 8.6 °F - 5.0 °F 85% 29.76 in 10.0 mi Calm Calm - N/A   Clear
8:36 AM 10.4 °F - 6.8 °F 85% 29.76 in 10.0 mi Calm Calm - N/A   Clear
8:56 AM 8.6 °F 2.0 °F 5.0 °F 85% 29.75 in 10.0 mi SE 3.5 mph - N/A   Clear
9:16 AM 6.8 °F -3.5 °F 3.2 °F 85% 29.75 in 10.0 mi SE 5.8 mph - N/A   Clear
9:36 AM 8.6 °F - 6.8 °F 92% 29.75 in 10.0 mi Calm Calm - N/A   Clear
9:56 AM 10.4 °F - 6.8 °F 85% 29.74 in 10.0 mi Calm Calm - N/A   Clear
10:16 AM 12.2 °F 6.1 °F 12.2 °F 100% 29.74 in 10.0 mi SSW 3.5 mph - N/A   Clear
10:36 AM 15.8 °F 8.6 °F - N/A% 29.74 in 10.0 mi SSW 4.6 mph - N/A   Clear
10:56 AM 17.6 °F 10.7 °F - N/A% 29.74 in 10.0 mi SSW 4.6 mph - N/A   Clear
11:16 AM 19.4 °F - 19.4 °F 100% 29.74 in 10.0 mi Calm Calm - N/A   Clear
11:36 AM 21.2 °F - - N/A% 29.74 in 10.0 mi Calm Calm - N/A   Clear
11:56 AM 24.8 °F - - N/A% 29.74 in 10.0 mi Calm Calm - N/A   Clear
12:16 PM 26.6 °F 22.6 °F - N/A% 29.74 in 10.0 mi West 3.5 mph - N/A   Clear
12:36 PM 26.6 °F - - N/A% 29.73 in 10.0 mi Calm Calm - N/A   Clear
12:56 PM 26.6 °F - - N/A% 29.73 in 10.0 mi Calm Calm - N/A   Clear
1:16 PM 30.2 °F - - N/A% 29.73 in 10.0 mi Calm Calm - N/A   Clear
1:36 PM 28.4 °F - - N/A% 29.73 in 10.0 mi Calm Calm - N/A   Clear
3:36 PM 28.4 °F 23.3 °F - N/A% 29.73 in 10.0 mi NNE 4.6 mph - N/A   Clear
3:56 PM 28.4 °F 24.6 °F - N/A% 29.73 in 10.0 mi North 3.5 mph - N/A   Clear
4:16 PM 28.4 °F - - N/A% 29.73 in 10.0 mi Calm Calm - N/A   Clear
4:36 PM 28.4 °F - - N/A% 29.73 in 10.0 mi Calm Calm - N/A   Clear
4:56 PM 28.4 °F 24.6 °F - N/A% 29.73 in 10.0 mi North 3.5 mph - N/A   Clear
5:16 PM 28.4 °F 23.3 °F - N/A% 29.74 in 10.0 mi NNE 4.6 mph - N/A   Clear
5:36 PM 30.2 °F 25.4 °F - N/A% 29.74 in 10.0 mi NNE 4.6 mph - N/A   Clear
5:56 PM 28.4 °F 23.3 °F - N/A% 29.74 in 10.0 mi NNE 4.6 mph - N/A   Clear
6:16 PM 28.4 °F 24.6 °F - N/A% 29.75 in 10.0 mi NNE 3.5 mph - N/A   Clear
6:36 PM 28.4 °F 22.2 °F - N/A% 29.75 in 10.0 mi NNE 5.8 mph - N/A   Clear
6:56 PM 28.4 °F 22.2 °F - N/A% 29.75 in 10.0 mi NNE 5.8 mph - N/A   Clear
7:16 PM 28.4 °F 22.2 °F - N/A% 29.76 in 10.0 mi NNE 5.8 mph - N/A   Clear
7:36 PM 26.6 °F 22.6 °F - N/A% 29.76 in 10.0 mi NNE 3.5 mph - N/A   Clear
7:56 PM 26.6 °F 21.2 °F - N/A% 29.77 in 10.0 mi North 4.6 mph - N/A   Clear
8:16 PM 24.8 °F 20.5 °F - N/A% 29.77 in 10.0 mi NNE 3.5 mph - N/A   Clear
8:36 PM 24.8 °F 19.1 °F - N/A% 29.78 in 10.0 mi NNE 4.6 mph - N/A   Clear
9:56 PM 17.6 °F - - N/A% 29.80 in 10.0 mi Calm Calm - N/A   Clear
10:16 PM 15.8 °F - - N/A% 29.80 in 10.0 mi Calm Calm - N/A   Clear
10:36 PM 14.0 °F - - N/A% 29.81 in 10.0 mi Calm Calm - N/A   Clear
10:56 PM 14.0 °F - - N/A% 29.81 in 10.0 mi Calm Calm - N/A   Clear
11:16 PM 14.0 °F - - N/A% 29.82 in 10.0 mi Calm Calm - N/A   Clear
11:36 PM 12.2 °F - - N/A% 29.83 in 10.0 mi Calm Calm - N/A   Clear